Location: Home
(42.5358°N, 72.7383°W)
Time: 00:07:32
(UTC-05:00)

Vanguard 3 - Pass Details

Date: 07 December 2021
Orbit: 508 x 3260 km, 33.3° (Epoch: 21 January)

Event Time Altitude Azimuth Distance (km) Brightness Sun altitude
Rises 01:44:39 0° 224° (SW) 6,365 - -57.8°
Reaches altitude 10° 01:48:45 10° 219° (SW) 5,628 - -57.1°
Maximum altitude 02:05:44 47° 153° (SSE) 3,943 - -54.3°
Exits shadow 02:06:29 47° 148° (SSE) 3,950 10.4 -54.1°
Drops below altitude 10° 02:23:06 10° 88° (E) 5,768 11.9 -51.3°
Sets 02:27:19 0° 83° (E) 6,532 12.4 -50.5°
